Miscellaneous Local Product
Issued by NWS Hastings, NE

Home | Current Version | Previous Version | Graphics & Text | Print | Product List | Glossary On
Versions: 1 2 3 4 5 6 7 8 9 10 11 12 13 14 15 16 17 18 19 20 21 22 23 24 25 26 27 28 29 30 31 32 33 34 35 36 37 38 39 40 41 42 43 44 45 46 47 48 49 50
000
AXUS43 KGID 291602
MISGRI

GID CWA HOURLY WEATHER ROUNDUP
NATIONAL WEATHER SERVICE HASTINGS NE
1000 AM CST THU JAN 29 2015

NOTE: "FAIR" INDICATES FEW OR NO CLOUDS BELOW 12,000 FEET WITH NO
SIGNIFICANT WEATHER AND/OR OBSTRUCTIONS TO VISIBILITY.

...SOUTH CENTRAL NEBRASKA...

CITY           SKY/WX    TMP DP  RH WIND       PRES   REMARKS
GRAND ISLAND   CLOUDY    37  24  59 N26G36    30.43R WCI  25
HASTINGS       PTSUNNY   39  24  55 N24G38    30.43R WCI  28
KEARNEY        CLOUDY    37  23  56 N25G32    30.44R WCI  26
ORD            CLOUDY    36  23  59 N20G38    30.43R WCI  25
YORK           CLOUDY    37  27  65 N22G28    30.39R WCI  27
AURORA         CLOUDY    37  26  64 N24G33    30.41R WCI  26
LEXINGTON      CLOUDY    37  24  61 N25G31    30.45R WCI  25
HOLDREGE       CLOUDY    37  24  59 N15G25    30.44R WCI  28
HEBRON         CLOUDY    39  26  58 N17G26    30.40R WCI  30

...NEBRASKA PANHANDLE...

CITY           SKY/WX    TMP DP  RH WIND       PRES   REMARKS
CHADRON        SUNNY     31  26  82 CALM      30.51R
ALLIANCE       SUNNY     30  25  81 NW5       30.47R WCI  25
SCOTTSBLUFF    SUNNY     34  24  67 NW12      30.48S WCI  25
SIDNEY         SUNNY     33  24  69 NW14      30.47R WCI  23

...WESTERN AND NORTH CENTRAL NEBRASKA...

CITY           SKY/WX    TMP DP  RH WIND       PRES   REMARKS
VALENTINE      PTSUNNY   35  21  56 N18G25    30.46R WCI  24
AINSWORTH      CLOUDY    34  24  67 N26       30.44R WCI  21
ONEILL         CLOUDY    36  28  74 NW14G22   30.42R WCI  27
BROKEN BOW     CLOUDY    36  24  62 N24G33    30.44R WCI  24
IMPERIAL       SUNNY     33  24  69 NW13      30.50R WCI  24
NORTH PLATTE   SUNNY     32  25  75 NW10      30.48R WCI  24
MCCOOK         SUNNY     36  27  69 NW15      30.49R WCI  27

...EASTERN NEBRASKA...

CITY           SKY/WX    TMP DP  RH WIND       PRES   REMARKS
NORFOLK        CLOUDY    36  28  73 N18G28    30.39R WCI  26
SO SIOUX CITY  CLOUDY    34  26  72 NW22G29   30.37R WCI  22
TEKAMAH        CLOUDY    37  27  67 NW30G37   30.37R WCI  24
COLUMBUS       CLOUDY    37  23  56 N29       30.41R WCI  25
ALBION         CLOUDY    37  25  63 N21       30.39R WCI  26
OMAHA EPPLEY   CLOUDY    37  27  67 N25G38    30.34R WCI  25
OFFUTT AFB     CLOUDY    37  27  66 N21G31    30.35R WCI  27
MILLARD        CLOUDY    37  28  67 NW14G35   30.35R WCI  29
LINCOLN        CLOUDY    39  27  62 N30G39    30.40R WCI  27
NEBRASKA CITY  CLOUDY    37  25  62 N18G35    30.32R WCI  27
BEATRICE       CLOUDY    38  30  70 N24G30    30.37R WCI  27
FALLS CITY     CLOUDY    38  26  62 N17G32    30.33R WCI  28

...NORTHERN KANSAS...

CITY           SKY/WX    TMP DP  RH WIND       PRES   REMARKS
GOODLAND       MOSUNNY   33  27  78 N17       30.50R WCI  22
HILL CITY      SUNNY     38  25  59 NW25      30.49R WCI  27
NORTON         SUNNY     37  25  60 NW17G23   30.46  WCI  28
PHILLIPSBURG   PTSUNNY   43  27  52 NW18G28   30.47R
SMITH CENTER   MOSUNNY   39  25  56 N21G26    30.46R WCI  29
BELOIT         CLOUDY    41  27  56 NW20G26   30.44R
HAYS           MOSUNNY   39  23  52 NW17      30.47R WCI  30
RUSSELL        MOSUNNY   40  27  59 NW18      30.45R WCI  31
CONCORDIA      CLOUDY    40  26  57 N23G35    30.41R WCI  30
SALINA         CLOUDY    41  28  60 NW14      30.44R
TOPEKA         CLOUDY    41  27  57 N20G29    30.37R



USA.gov is the U.S. government's official web portal to all federal, state and local government web resources and services.